Regional Weather Roundup
Issued by NWS

Home | Current Version | Previous Version | Graphics & Text | Print | Product List | Glossary On
Versions: 1 2 3 4 5 6 7 8 9 10 11 12 13 14 15 16 17 18 19 20 21 22 23 24 25 26 27 28 29 30 31 32 33 34 35 36 37 38 39 40 41 42 43 44 45 46 47 48 49 50
000
ASUS45 KTFX 241219
RWRMT
MONTANA HOURLY WEATHER ROUNDUP
NATIONAL WEATHER SERVICE GREAT FALLS MT
519 AM MST WED DEC 24 2014

NOTE: "FAIR" INDICATES FEW OR NO CLOUDS BELOW 12000 FEET WITH NO
SIGNIFICANT WEATHER AND/OR OBSTRUCTIONS TO VISIBILITY.

* THESE STATIONS ARE NOT UNDER NWS QUALITY CONTROL. THEY DO NOT
   REPORT WEATHER SUCH AS PRECIPITATION OR FOG.

MTZ001>007-043-241300-
WEST OF THE DIVIDE
CITY           SKY/WX    TMP DP  RH WIND       PRES   REMARKS
KALISPELL      LGT RAIN  34  34 100 W6        29.72F WCI  29
MISSOULA       CLOUDY    30  28  92 CALM      29.78F
BUTTE          MOCLDY    32  23  69 VRB3      29.81F
MULLAN PASS    HVY SNOW  30  27  89 VRB7      29.69F VSB M1/4 WCI  23
* HAMILTON APT PTCLDY    43  28  56 S17       29.77F
* LIBBY APT    MOCLDY    32  30  92 CALM      29.75F VSB 2
* LINCOLN      N/A       33  27  79 S5G12      N/A   WCI  28
* LOOKOUT PASS N/A       32  32 100 S1         N/A
* POLSON       N/A       35  35 100 S2         N/A
* RONAN APT    CLOUDY    39  36  89 N/A        N/A
* SEELEY LAKE  N/A       28  27  96 N2         N/A
* THOMP F APT  MOCLDY    20  17  88 E5G10      N/A   WCI  13
* YAAK HILL    N/A       32  30  92 N/A        N/A
$$

MTZ008-052>055-241300-
SOUTHWEST MONTANA
CITY           SKY/WX    TMP DP  RH WIND       PRES   REMARKS
BOZEMAN        PTCLDY    30  21  69 VRB3      29.80F
DILLON         PTCLDY    28  19  69 SW15      29.87F WCI  16
* W YELLOWSTON PTCLDY    19  14  81 SW4G11     N/A
* THREE FORKS  PTCLDY    36  21  54 S28G37     N/A   WCI  23
* BOULDER HILL N/A       35  20  54 SW20G27    N/A   WCI  24
* MONIDA PASS  N/A       17  17 100 SE24       N/A   WCI  -1
* RAYNOLDS PAS N/A       17   1  49 S15        N/A   WCI   2
* WHITEHALL    N/A       37  22  55 SW18G32    N/A   WCI  27
* WISE RIVER   N/A       33  24  70 W7G12      N/A   WCI  27
$$

MTZ009>010-012-014-046-048-049-054-241300-
EAST SLOPES AND CENTRAL MONTANA
CITY           SKY/WX    TMP DP  RH WIND       PRES   REMARKS
CUT BANK       CLOUDY    36  28  73 N10       29.63F WCI  29
GREAT FALLS    MOCLDY    45  28  51 SW23G31   29.63F
HELENA         PTCLDY    30  21  69 CALM      29.72F
MALMSTROM AFB  MOCLDY    43  28  56 S23G30    29.65F
* CONRAD       CLOUDY    28  25  89 CALM       N/A
* DEARBORN     N/A       47  28  48 S20G27     N/A
* EAST GLACIER N/A       35  31  85 NW18G32    N/A   WCI  24
* MONARCH      N/A       36  20  52 S13G20     N/A   WCI  27
* PENDROY      N/A       37  30  76 NE3        N/A
* ROGERS PASS  N/A       34  27  76 SE20G37    N/A   WCI  23
* SWEET GRASS  N/A       34  28  79 W11        N/A   WCI  26
* WHITE SULPH  N/A       37  24  59 S17G26     N/A   WCI  27
$$

MTZ011-013-016-021-035-040-045-047-050-051-241300-
NORTH CENTRAL MONTANA
CITY           SKY/WX    TMP DP  RH WIND       PRES   REMARKS
HAVRE          RAIN      36  32  85 SW7       29.65F WCI  30
LEWISTOWN      CLOUDY    43  28  56 SW25G31   29.66F
* N BAR RANCH  PTCLDY    39  30  70 CALM      29.66F
* CHINOOK      PTCLDY    37  34  89 SW8       29.65S WCI  31
* CHESTER      N/A       33  24  70 N1         N/A
* DENTON       N/A       44  27  51 SW12G19    N/A
* GEYSER       N/A       42  23  47 SW29G40    N/A
* JUDITH GAP   N/A       40  25  55 SW18G24    N/A   WCI  31
* LOMA         N/A       46  28  50 SW10       N/A
$$

MTZ017>020-022>027-061-062-241300-
NORTHEAST MONTANA
CITY           SKY/WX    TMP DP  RH WIND       PRES   REMARKS
GLASGOW        N/A       30  27  89 E9        29.62F WCI  22
GLENDIVE       CLOUDY    25  21  85 S10       29.70F WCI  15
JORDAN         CLEAR     34  28  79 SW9       29.65F WCI  27
SIDNEY         CLOUDY    21  18  88 CALM      29.70F
WOLF POINT     N/A       27  23  85 S5        29.67F WCI  21
* BEAVER HILL  N/A       29  20  69 S26        N/A   WCI  14
* CIRCLE       N/A       32  26  79 SW7G13     N/A   WCI  25
* LINDSAY DVD  N/A       31  21  66 SW16       N/A   WCI  20
* NAVAJO       N/A       27  21  78 SW18       N/A   WCI  14
* PLENTYWOOD A CLEAR     23  21  92 SE8       29.63F WCI  14
* POPLAR APT   CLEAR     28  25  89 N/A       29.66F
* SACO         N/A       32  27  82 S6         N/A   WCI  26
$$

MTZ028>042-056>058-241300-
SOUTHCENTRAL AND SOUTHEAST MONTANA
CITY           SKY/WX    TMP DP  RH WIND       PRES   REMARKS
BAKER          CLEAR     28  19  69 S16       29.72F WCI  16
BILLINGS       MOCLDY    37  16  42 W21G29    29.74F WCI  26
LIVINGSTON     MOCLDY    36  19  50 SW37G55   29.73F WCI  22
MILES CITY     PTCLDY    25  19  78 SE8       29.72F WCI  16
* BIG TIMBER A PTCLDY    37  19  48 W20G28    29.74F WCI  27
* FORSYTH APT  CLEAR     32  19  59 SW5       29.72F WCI  27
* LAUREL APT   CLEAR     36  10  34 SW11G22    N/A   WCI  28
* ROUNDUP APT  CLEAR     36  25  64 S20        N/A   WCI  25
* ALZADA       N/A       16  11  81 E4         N/A
* HYSHAM       N/A       31  21  66 W3G8       N/A
* LAME DEER    N/A       29  13  51 SW7        N/A   WCI  22
* REED POINT   N/A       29  20  69 W1         N/A
* ROSCOE HILL  N/A       39  14  36 E3G13      N/A
$$

REGIONAL REPORTS...DAKOTAS
CITY           SKY/WX    TMP DP  RH WIND       PRES   REMARKS
WILLISTON      CLOUDY    23  19  85 CALM      29.70F
DICKINSON      CLEAR     21  16  81 S13       29.72F WCI   8
BEACH          CLOUDY    25  19  78 S7        29.71F WCI  17
CROSBY         FAIR      27  27 100 S14       29.66F WCI  16
TIOGA          CLOUDY    23  23 100 S8        29.71F WCI  14
WATFORD CITY   MOCLDY    25  23  92 CALM      29.69F
BISMARCK       CLOUDY    27  25  92 S6        29.86F WCI  20
GRAND FORKS    CLOUDY    28  27  96 W7        29.86F WCI  21
FARGO          CLOUDY    30  27  89 NW6       29.87F WCI  24
BUFFALO SD     PTCLDY    16  12  84 SE8       29.70F WCI   5
RAPID CITY     MOCLDY    16  10  77 E3        29.85F
$$

REGIONAL REPORTS...WYOMING/IDAHO/WASHINGTON
CITY           SKY/WX    TMP DP  RH WIND       PRES   REMARKS
GILLETTE       CLEAR     30  16  56 SW16      29.77F WCI  19
SHERIDAN       PTCLDY    19  14  81 S7        29.76F WCI  10
CODY           PTCLDY    37  18  46 W15G32    29.81F WCI  28
YELLOWSTONE LA CLEAR     14  10  84 CALM      30.01F
SALMON         CLOUDY    28  21  75 N5        29.95F WCI  22
MULLAN PASS    HVY SNOW  30  27  89 VRB7      29.69S VSB M1/4 WCI  23
SAND POINT     LGT SNOW  32  32 100 NE7       29.78F WCI  25
SPOKANE        LGT RAIN  39  39 100 NW9       29.76F VSB 1    WCI  33
$$

REGIONAL REPORTS...ALBERTA
CITY           SKY/WX    TMP DP  RH WIND       PRES   REMARKS
CALGARY        MOCLDY    32  19  59 CALM      29.59F
LETHBRIDGE     CLOUDY    37  28  70 W24G31    29.62S WCI  26
MEDICINE HAT   CLOUDY    34  30  85 W5        29.63S WCI  29
EDMONTON       CLOUDY    27  19  72 NW6       29.58F WCI  20
WATERTON GATE  N/A       34  30  85 SW10       N/A   WCI  26
CARDSTON       N/A       30  28  92 S2         N/A
MILK RIVER     N/A       36  28  73 W18G25     N/A   WCI  26
$$

REGIONAL REPORTS...SASKATCHEWAN
CITY           SKY/WX    TMP DP  RH WIND       PRES   REMARKS
SWIFT CURRENT  CLEAR     28  25  89 SW13      29.54S WCI  17
REGINA         LGT SNOW  28  25  89 S13G21    29.54F WCI  17
VAL MARIE      N/A       28  25  89 SW9        N/A   WCI  19
ASSINIBOIA     N/A       34  27  76 W18G24     N/A   WCI  23
CORONACH       N/A       28  23  81 NE3        N/A

$$



USA.gov is the U.S. government's official web portal to all federal, state and local government web resources and services.